Powrót do katalogu

STARLINK-1888

AktywnyŁącznośćVLEO
NORAD 47171·PAYLOAD·🇺🇸 United States

Wystrzelony Nov 25, 2020 z Cape Canaveral Space Force Station

Loading…

Następne Przeloty (najbliższe 24 godziny)

TLE

ŚwieżeSource: CelesTrak SupGP

Epoka: Sep 14, 2026, 21:32 UTC

1 47171C 20088BB  26257.89770833  .01078000  00000+0  99414-3 0  2577
2 47171  53.0337  63.5584 0001431 319.0848 188.7007 16.11061349    10

Śledź STARLINK-1888 w czasie rzeczywistym z AllMySat

Download on the App Store